Location: Beaucaire
(46.3682°N, 2.9991°E)
Time: 23:44:00
(UTC+00:00)

Daily predictions for brighter satellites

Satellite Brightness Start Highest point End
(mag) Time Altitude Azimuth Time Altitude Azimuth Time Altitude Azimuth
Cosmos 2227 Rocket 4.3 18:15:52 10° WSW 18:20:46 29° NW 18:25:40 10° N
CZ-2D R/B 3.6 18:17:05 10° S 18:20:57 74° WSW 18:24:52 10° NNW
Meteor 1-21 4.4 18:15:38 10° N 18:21:07 52° ENE 18:26:33 10° SSE
USA 116 3.7 18:19:58 10° NNE 18:23:16 46° E 18:26:55 10° S
CSL-04 Debris 4.2 18:18:23 10° SSE 18:23:42 63° ENE 18:29:02 10° N
GP-B 3.3 18:20:28 10° N 18:24:56 82° W 18:29:23 10° S
SKYMED 2 4.4 18:22:09 10° N 18:26:25 57° WNW 18:30:40 10° SSW
YAOGAN 1 2.6 18:23:44 10° SSE 18:28:03 90° W 18:32:25 10° NNW
Cosmos 1603 3.7 18:23:37 10° NNW 18:29:20 81° ENE 18:34:58 10° SSE
HJ-1C 3.6 18:27:21 10° SSE 18:30:30 48° ENE 18:33:42 10° N
Cosmos 1898 Rocket 3.4 18:25:47 10° SSW 18:30:55 72° ESE 18:36:06 10° NNE
Cosmos 1867 4.0 18:27:49 10° NNW 18:33:07 47° NE 18:38:22 10° ESE
CSL-04 Rocket 3.7 18:28:01 10° SSE 18:33:24 72° ENE 18:38:54 10° N
Okean 2 3.4 18:30:27 10° N 18:34:39 82° E 18:38:48 10° S
USA 234 4.2 18:37:53 10° ENE 18:43:12 26° SE 18:48:30 10° S
Cosmos 858 Rocket 4.5 18:38:58 10° S 18:44:08 68° ESE 18:49:20 10° NNE
USA 102 4.4 18:38:47 10° SE 18:44:29 75° ENE 18:48:30 10° NNW
CREW DRAGON DEMO-1 DEB 4.4 18:42:24 10° WNW 18:45:08 29° N 18:47:51 10° ENE
Cosmos 1782 Rocket 3.5 18:44:03 10° S 18:48:27 83° E 18:52:55 10° N
Cosmos 807 4.2 18:45:33 10° S 18:48:36 76° E 18:52:13 10° N
Cosmos 1975 3.1 18:45:27 10° SSW 18:49:32 75° W 18:53:38 10° N
Cosmos 2233 Rocket 4.3 18:43:23 10° SSW 18:49:38 75° W 18:55:51 10° N
Cosmos 372 Rocket 4.5 18:45:21 10° S 18:50:09 38° ESE 18:54:58 10° NE
CZ-4 R/B 2.8 18:46:15 10° S 18:50:16 43° W 18:54:18 10° NNW
USA 186 2.5 18:48:49 13° SE 18:51:06 31° ENE 18:54:00 10° N
Cosmos 1025 Rocket 3.7 18:48:23 10° N 18:52:24 34° ENE 18:56:08 11° SE
Nadezhda 4 Rocket 4.4 18:53:25 10° N 18:59:09 40° ENE 19:04:41 11° SE
Cosmos 1937 Rocket 3.5 18:55:20 10° SSW 19:00:37 88° WNW 19:05:52 10° NNE
OBJECT-B 2.4 19:01:22 18° ENE 19:01:39 18° ENE 19:03:56 10° NNE
OPS 6432 4.4 18:58:43 10° NW 19:01:53 90° W 19:05:00 15° SE
Cosmos 2034 Rocket 4.4 18:56:22 10° SSE 19:02:13 40° E 19:08:04 10° NNE
CZ-2C R/B 3.1 19:02:20 10° SSW 19:03:43 12° S 19:04:39 11° SSE
MOS 1 Rocket 3.0 18:59:50 10° NNE 19:04:22 78° ESE 19:08:40 10° S
FREGAT/IRIS 3.2 19:05:32 28° E 19:05:41 28° ENE 19:07:59 10° N
Cosmos 1674 3.9 19:06:00 10° NNE 19:09:08 23° ENE 19:09:42 22° E
Cosmos 1975 Rocket 3.6 19:07:59 10° NNW 19:12:15 59° W 19:16:30 10° S
In-Cosmos 22 4.0 19:11:02 10° N 19:16:18 64° ENE 19:21:24 11° SSE
NOSS 2-2 (E) 3.0 19:13:03 10° SW 19:16:33 89° NW 19:20:31 10° NE
Resurs 01 Rocket 2.8 19:19:17 23° E 19:20:03 24° ENE 19:23:36 10° NNE
H-2A R/B 2.7 19:15:30 10° S 19:20:20 55° W 19:25:18 10° NNW
ARGOS 3.4 19:16:08 10° S 19:21:28 72° WSW 19:26:52 10° NNW
ATLAS 2AS CENTAUR R/B 4.5 19:16:11 10° SSE 19:24:48 15° ENE 19:26:47 10° ENE
Cosmos 1707 2.7 19:17:56 10° N 19:21:48 82° W 19:25:37 10° S
SJ-6B 2.6 19:21:47 25° SSE 19:23:49 63° ENE 19:27:32 10° N
CZ-2C R/B 2.7 19:19:24 10° NNE 19:24:53 60° E 19:30:24 10° S
NOSS 2-2 (D) 2.9 19:21:31 10° SW 19:25:00 87° SE 19:28:54 10° NE
Sich 1 Rocket 4.0 19:22:13 10° SSW 19:26:41 66° WNW 19:31:13 10° N
MOS 1 4.2 19:23:05 12° SSE 19:28:19 74° ENE 19:34:01 10° NNW
Cosmos 1048 Rocket 4.1 19:26:19 10° NNW 19:31:34 59° ENE 19:34:10 29° SE
CENTAUR R/B 3.5 19:25:54 10° NW 19:33:38 54° NE 19:38:32 26° ESE
Cosmos 1844 4.1 19:28:40 10° S 19:33:51 37° ESE 19:39:01 10° NE
ARIANE 5 R/B 4.1 19:37:43 21° ENE 19:37:43 21° ENE 19:40:37 10° NNE
SL-08 RB Rocket 4.1 19:33:20 10° S 19:37:55 65° WSW 19:42:28 10° NNW
Cosmos 2263 Rocket 3.5 19:33:28 10° SW 19:38:42 41° NW 19:44:00 10° NNE
ATLAS 3B R/B 4.0 19:33:34 10° NNW 19:39:14 27° NNE 19:42:49 18° ENE
Cosmos 2285 Rocket 4.3 19:34:23 10° S 19:40:13 41° ESE 19:46:06 10° NE
ISS -3.9 19:37:55 10° SW 19:41:13 69° SSE 19:41:13 69° SSE
USA 238 DEB 3.9 19:34:26 10° NW 19:41:39 72° NE 19:45:38 30° SE
USA 238 3.9 19:34:33 10° NW 19:41:46 72° NE 19:45:42 30° SE
Abrixas rocket 2.4 19:39:48 10° W 19:42:32 53° N 19:42:32 53° N
SJ 16-02 4.5 19:40:09 10° W 19:42:39 15° NW 19:45:09 10° NNW
Cosmos 1844 Rocket 2.6 19:40:18 10° S 19:45:43 57° ESE 19:51:12 10° NNE
Okean 2 Rocket 3.5 19:42:21 10° SSW 19:46:49 63° W 19:51:17 10° N
Cosmos 1464 Rocket 4.3 19:44:22 10° SSW 19:50:27 67° W 19:56:37 10° N
Okean 1 Rocket 3.3 19:51:22 48° E 19:51:22 48° E 19:55:30 10° NNE
Lacrosse 5 rocket 3.6 19:48:31 10° WNW 19:51:58 22° N 19:55:13 11° NE
Ariane Rocket 3.5 19:49:58 12° S 19:54:35 58° WSW 19:59:37 10° NNW
Cosmos 1092 Rocket 3.9 19:51:34 10° N 19:57:42 68° E 20:00:15 37° SSE
Meteor 1-15 Rocket 4.1 19:52:37 10° S 19:58:12 76° E 20:03:55 10° NNE
Resurs 1-3 3.5 19:57:58 56° SSE 19:58:51 81° ENE 20:03:16 10° NNW
Cosmos 2195 Rocket 4.4 19:54:47 10° N 20:01:02 64° ENE 20:03:07 41° SE
Cosmos 2298 Rocket 4.2 19:59:08 10° SSW 20:04:27 76° WNW 20:09:49 10° NNE
Cosmos 494 Rocket 3.9 19:59:20 10° NNW 20:04:36 72° ENE 20:05:36 57° SE
SPOT 3 Rocket 3.4 20:03:38 47° SSE 20:05:11 83° ENE 20:10:21 10° NNW
Cosmos 2026 Rocket 4.1 19:58:57 10° N 20:05:14 60° ENE 20:06:56 45° SE
CZ-2C R/B 3.8 20:01:42 10° NNE 20:05:30 55° ENE 20:05:30 55° ENE
Meteor 2-13 Rocket 4.3 20:00:15 10° N 20:06:27 81° E 20:09:02 38° SSE
Cosmos 1833 Rocket 3.9 20:02:40 10° N 20:07:21 26° NE 20:07:46 26° NE
NOSS 3-2 (A) 4.1 20:02:26 10° NW 20:10:00 80° SW 20:13:57 35° SSE
Cosmos 1428 Rocket 4.4 20:11:20 10° N 20:17:37 69° E 20:18:50 56° SE
Terra 3.9 20:19:13 14° NE 20:19:13 14° NE 20:20:40 10° NNE
Cosmos 1626 3.7 20:15:58 10° N 20:17:51 27° N 20:17:51 27° N
Cosmos 2279 Rocket 4.4 20:20:51 42° ENE 20:20:51 42° ENE 20:26:00 10° NNE
USA 234 3.1 20:20:13 10° NE 20:26:49 84° SE 20:33:23 10° SW
Meteor 2-5 Rocket 3.7 20:23:55 10° NNW 20:29:34 82° W 20:30:35 61° S
OBJECT-B 3.1 20:34:34 24° WNW 20:34:34 24° WNW 20:36:38 10° NW
SPOT 5 4.3 20:40:09 29° NE 20:40:09 29° NE 20:43:28 10° N
Meteor 1-22 Rocket 4.2 20:43:03 84° S 20:43:17 89° E 20:49:21 10° NNE
NOSS 3-2 (C) 4.1 20:36:35 10° NW 20:44:09 77° SW 20:46:11 55° SSE
Cosmos 1125 Rocket 4.1 20:40:11 10° SW 20:45:24 56° WNW 20:50:39 10° NNE
Cosmos 2082 Rocket 3.5 20:42:25 10° N 20:46:33 29° NE 20:46:33 29° NE
COSMOS 2406 3.5 20:49:31 10° NNW 20:54:20 59° NNE 20:54:20 59° NNE
ERS-1 Rocket 4.2 20:57:24 34° NNE 20:57:24 34° NNE 21:00:28 10° N
Resurs 01 Rocket 2.9 20:56:51 38° W 20:56:51 38° W 21:00:32 10° NNW
Meteor 1-24 Rocket 3.9 20:50:57 10° NNW 20:56:22 65° W 20:56:22 65° W
Lacrosse 4 Rocket 3.9 21:01:07 10° N 21:02:11 15° N 21:02:11 15° N
Cosmos 2098 Rocket 4.3 20:57:25 10° N 21:03:50 63° NE 21:03:50 63° NE
ATLAS 2AS CENTAUR R/B 2.9 21:03:29 10° SSW 21:11:59 76° ENE 21:19:20 10° NE
SPOT 1/Viking Rocket 4.4 21:14:24 47° NNW 21:14:24 47° NNW 21:18:08 10° NNW
ARIANE 5 R/B 4.4 21:15:16 29° NW 21:15:16 29° NW 21:17:44 10° NNW
Cosmos 1655 Rocket 4.2 21:07:18 10° N 21:12:30 62° N 21:12:30 62° N
Cosmos 2278 Rocket 4.5 21:22:34 14° NNE 21:22:34 14° NNE 21:23:16 10° NNE
CENTAUR R/B 3.6 21:16:44 10° NW 21:24:37 53° WSW 21:25:44 50° SW
ATLAS 3B R/B 2.9 21:24:05 10° NW 21:30:03 68° NNW 21:30:03 68° NNW
Lacrosse 5 rocket 4.0 21:28:44 10° NW 21:30:51 20° NNW 21:30:51 20° NNW
Cosmos 1833 Rocket 4.0 21:46:08 10° NNW 21:49:28 35° NW 21:49:28 35° NW
Terra 4.1 21:58:06 21° NNW 21:58:06 21° NNW 21:59:43 10° NNW
USA 234 4.1 22:06:56 31° NNE 22:09:32 45° NNW 22:15:40 10° W
Cosmos 2082 Rocket 4.2 22:26:15 10° NW 22:28:23 23° NW 22:28:23 23° NW
Cosmos 2278 Rocket 4.4 23:04:22 20° NNW 23:04:22 20° NNW 23:06:53 10° N
ATLAS 2AS CENTAUR R/B 4.2 22:59:08 23° W 23:03:12 37° NNW 23:10:20 10° NNE
